カタログに戻る

STARLINK-4030

運用中通信VLEO
NORAD 52698·PAYLOAD·🇺🇸 United States

打ち上げ May 18, 2022 から Cape Canaveral Space Force Station

Loading…

次のパス (今後24時間)

TLE

最新Source: CelesTrak SupGP

元期: Sep 14, 2026, 21:57 UTC

1 52698C 22053AU  26257.91506944 -.00310500  00000+0 -91608-2 0  2575
2 52698  53.1602  13.6416 0001238  80.6379 202.1906 15.34590479    15

AllMySatでSTARLINK-4030をリアルタイム追跡

Download on the App Store